Location: Unspecified
(51.0950°N, 12.9690°E)
Time: 07:41:31
(UTC+00:00)

PCSat - Pass Details

Date: 18 April 2024
Orbit: 783 x 792 km, 67.1° (Epoch: 24 May)

Event Time Altitude Azimuth Distance (km) Brightness Sun altitude
Rises 19:31:23 0° 213° (SSW) 3,268 12.7 -12.2°
Reaches altitude 10° 19:33:47 10° 213° (SSW) 2,344 12.0 -12.5°
Maximum altitude 19:39:10 85° 126° (SE) 799 9.5 -13.2°
Drops below altitude 10° 19:44:36 10° 38° (NE) 2,366 12.0 -13.8°
Sets 19:47:02 0° 38° (NE) 3,300 12.8 -14.1°
